Wind_Gust
9 8 8 8 3 5 5 7 17 16 12 20 16 16 24 11 11 9 6 4 14 10 7 11 13 10 15 17 25 14 10 27 15 34 27 19 21 23 23 24 23 22 21 19 19 20 21 23 25 26 26 25 25 25 24 23 23 23 23 22 22 21 21 20 20 19 18 18 18 18 18 17 17 17 18 18 18 18 18 17 17 17 19 18 19 19 20 20 19 19 20 20 20 20 19 19 18
7 8 9 6 4 5 11 8 13 7 10 15 31 7 20 7 10 15 13 9 9 9 6 14 16 23 23 25 17 13 12 11 7 9 12 17 22 25 26 26 25 25 21 18 17 18 17 22 26 26 25 26 26 25 24 24 23 24 23 23 22 21 21 20 20 19 18 18 18 18 17 17 17 17 18 19 17 18 17 18 17 19 18 19 19 19 19 19 18 19 19 20 20 19 19 19 18
6 8 9 7 5 6 7 8 18 9 17 25 34 24 8 18 11 11 17 15 11 8 10 12 7 12 7 8 11 9 13 9 18 16 20 21 29 23 26 26 24 23 21 18 18 17 17 20 26 26 26 26 26 25 24 24 24 23 24 23 22 22 21 21 20 19 18 18 18 18 17 17 18 18 18 18 17 17 17 17 18 17 17 18 18 19 18 20 19 19 19 19 19 19 19 19 19
4 5 6 3 9 7 12 11 7 16 22 30 23 7 13 10 12 12 15 17 12 10 7 10 11 14 5 16 10 16 14 16 5 23 34 31 23 28 27 25 23 22 20 18 17 17 16 24 26 26 26 26 26 25 25 25 24 23 23 23 23 22 22 20 20 19 18 18 18 18 17 18 18 18 18 17 17 17 17 17 16 17 17 18 17 18 18 18 19 19 19 19 19 19 18 19 19
4 5 3 6 12 11 14 14 11 13 26 30 18 7 10 7 11 13 15 13 9 12 13 9 12 12 7 10 10 14 10 10 10 5 25 17 22 24 26 24 22 22 20 17 17 17 18 27 26 25 26 26 27 25 25 25 24 24 24 23 23 22 22 20 20 19 19 18 18 18 18 18 18 18 18 17 17 17 17 16 16 17 18 18 18 18 18 18 19 19 19 19 19 19 19 18 19
3 3 4 4 11 7 12 11 19 21 30 10 16 7 7 10 15 14 19 24 12 16 7 10 11 15 10 11 11 10 19 22 13 10 20 23 25 23 24 22 21 21 19 18 17 16 20 27 26 26 25 27 26 26 26 25 25 24 23 24 23 22 22 21 20 20 19 19 19 19 18 18 18 18 18 17 18 18 17 16 17 17 17 17 17 17 18 18 19 20 20 20 20 20 19 19 18
5 7 7 5 8 9 12 15 16 20 32 11 17 6 10 13 7 8 13 21 7 10 11 7 16 18 15 14 14 10 10 10 15 17 12 24 23 23 23 22 22 21 20 19 16 18 21 27 25 25 26 26 27 27 25 26 25 24 24 24 23 22 22 21 21 20 19 19 19 19 19 19 19 19 17 17 17 17 17 17 17 17 17 17 17 17 18 19 20 20 21 20 20 20 20 20 19
4 8 11 11 13 12 12 12 17 17 22 12 14 14 14 19 24 7 12 9 16 14 11 9 8 10 12 5 14 4 9 10 14 16 22 23 23 22 21 22 24 21 20 17 17 17 22 28 25 25 26 27 27 26 25 26 25 24 24 24 22 22 21 21 21 20 20 20 20 19 19 19 18 18 18 17 18 18 18 17 17 17 16 16 16 17 18 19 20 20 21 20 20 20 19 19 20
5 6 6 9 9 13 9 21 25 13 21 11 11 11 13 17 22 11 14 15 17 12 20 16 11 16 12 9 9 7 14 16 18 23 22 23 23 21 23 22 24 23 20 18 17 18 18 26 26 26 26 26 27 27 26 25 24 23 23 23 22 21 21 20 20 20 20 20 19 19 19 18 17 17 18 18 17 17 17 17 17 17 17 17 16 17 18 18 19 20 19 20 20 20 20 19 20
5 7 9 15 9 14 12 19 15 20 22 8 13 14 11 17 21 18 15 23 16 9 9 5 4 13 19 15 15 11 18 23 23 22 22 21 21 20 20 20 22 24 21 19 18 18 18 24 28 26 25 26 25 25 25 24 24 24 22 22 22 21 20 21 20 20 20 19 19 19 18 18 17 17 17 17 17 17 17 16 16 16 16 16 16 16 17 17 18 18 19 20 20 20 19 19 21
8 9 5 11 8 15 21 18 15 12 15 9 15 13 15 20 17 23 21 23 12 13 11 19 20 24 18 15 8 9 18 22 26 26 22 21 20 20 21 19 21 22 24 19 18 17 20 20 26 27 26 25 25 24 24 23 23 22 22 21 20 21 20 20 20 20 19 20 19 18 18 18 17 17 17 17 17 16 16 16 16 16 15 16 15 16 16 17 18 19 19 20 20 20 20 21 22
7 9 9 8 14 16 13 12 13 15 12 8 20 9 8 16 12 15 18 21 14 13 14 17 26 27 19 20 14 20 21 22 23 22 21 20 20 19 19 19 19 18 20 20 18 17 18 19 19 25 29 27 25 24 23 23 23 22 22 21 21 20 20 19 19 19 19 18 18 18 18 18 17 16 16 16 16 16 16 16 16 15 15 15 15 17 17 17 18 18 19 19 19 20 20 21 22
8 4 6 8 11 6 8 15 12 12 12 12 9 11 12 19 19 17 20 20 19 17 15 13 25 11 22 15 17 20 24 21 22 20 21 20 19 20 19 20 20 19 18 18 19 18 17 16 19 18 23 28 25 25 24 24 22 23 22 21 20 20 19 18 18 17 18 18 18 17 17 17 17 16 16 16 16 16 16 16 15 15 14 14 16 16 17 17 17 17 17 18 19 20 21 22 23
9 10 9 12 5 8 11 11 8 10 14 9 10 13 14 16 16 20 18 19 17 17 12 22 23 15 17 20 21 22 22 23 24 20 21 20 19 20 20 21 19 19 17 17 19 18 17 15 16 17 19 18 18 22 24 25 23 24 22 20 20 19 18 17 17 17 17 17 17 17 17 17 17 16 15 15 15 15 15 15 15 14 14 14 15 16 16 15 15 16 16 16 17 19 21 21 22
9 5 7 7 9 6 7 19 6 8 17 8 10 18 13 10 20 16 17 20 23 9 22 24 27 24 26 29 22 28 27 27 27 22 22 21 21 21 21 21 19 17 17 17 17 17 16 16 16 15 14 14 15 13 14 22 24 22 20 18 18 18 17 17 16 16 16 16 17 16 17 17 16 16 15 15 14 15 15 15 14 14 14 14 16 15 15 14 13 13 12 13 16 18 20 21 23
9 7 7 7 8 7 10 10 6 13 19 11 16 13 11 16 10 18 17 20 18 16 24 24 18 23 27 28 37 29 27 28 26 25 25 25 23 22 22 21 19 19 16 16 16 14 15 15 13 14 14 13 11 11 13 13 19 20 18 18 18 17 17 17 17 16 16 17 17 16 16 14 14 13 16 12 14 14 14 12 13 13 14 14 14 15 13 12 12 11 10 11 15 18 22 24 25
4 9 9 9 14 5 8 7 11 15 13 15 17 13 15 19 12 9 22 18 29 20 15 17 28 9 32 23 25 30 27 26 26 26 26 25 25 25 23 21 20 16 16 15 14 15 14 15 14 14 12 13 12 12 11 10 14 18 16 17 18 18 17 17 17 17 15 15 14 14 13 9 7 8 10 7 12 8 12 14 13 12 13 13 14 15 13 12 12 12 11 12 16 21 23 25 26
5 7 9 8 10 9 8 14 15 10 15 13 15 9 10 17 16 16 24 19 25 20 14 15 11 10 16 19 26 30 30 31 31 30 28 29 27 26 24 22 21 22 19 16 15 14 15 14 14 14 13 12 12 12 10 9 10 12 8 8 8 12 14 14 12 8 10 7 13 11 8 8 8 8 7 9 6 7 9 13 12 12 12 12 13 14 13 12 12 13 14 14 16 19 18 13 18
7 6 7 8 8 9 8 10 9 12 13 11 14 15 11 14 13 14 16 25 26 26 15 16 18 21 23 26 26 27 31 30 30 29 31 31 31 28 25 23 22 20 20 17 16 15 14 14 13 13 12 12 12 9 8 8 9 8 7 8 8 9 9 8 7 8 6 6 7 8 8 7 6 6 6 8 7 10 8 11 12 11 11 11 12 14 13 13 13 15 15 15 16 15 11 9 9
5 7 6 8 9 6 8 5 10 8 9 12 12 13 9 10 8 12 12 25 30 24 29 21 25 31 30 28 27 27 28 29 29 29 29 29 26 26 24 24 21 23 19 17 17 16 15 14 13 12 13 12 12 9 8 9 9 8 8 8 8 8 8 7 6 6 6 6 8 7 8 7 6 5 9 13 12 8 8 10 12 11 11 11 13 11 13 11 13 14 15 14 11 9 9 9 9
8 10 8 11 9 10 9 7 9 10 10 10 7 11 10 10 7 7 11 15 25 25 23 24 34 29 28 30 29 28 29 28 28 27 29 28 24 22 22 21 21 21 18 19 17 16 14 14 13 12 12 12 10 10 9 10 8 9 8 8 8 8 8 7 7 6 6 7 7 7 7 6 6 6 6 6 7 6 6 7 7 8 7 8 11 9 8 8 9 9 9 10 8 9 10 11 9
8 9 9 12 11 5 11 12 9 8 8 7 7 7 10 10 8 10 16 12 21 22 22 27 31 34 33 31 28 29 27 28 28 28 27 28 28 24 21 18 17 18 18 18 17 16 15 13 13 13 12 10 11 11 11 11 10 9 8 7 8 7 8 7 6 6 7 6 6 7 7 7 6 6 6 6 6 6 6 6 6 7 7 7 7 8 7 7 8 8 9 9 9 10 12 12 9
8 6 5 9 7 7 7 8 8 8 10 8 9 7 11 9 10 16 16 12 11 10 17 21 23 24 26 31 34 29 26 26 27 30 28 29 26 23 21 20 23 21 18 16 16 15 15 13 12 14 13 12 10 10 9 9 10 10 8 8 9 7 8 7 6 5 6 6 6 8 10 10 7 7 7 5 7 7 7 6 7 6 7 7 5 8 8 7 8 8 9 9 9 9 10 11 13
6 10 4 9 10 12 9 7 6 8 7 9 11 17 11 15 11 13 16 14 12 13 12 22 24 25 26 29 26 30 38 30 30 30 28 27 25 24 23 21 21 19 17 17 17 16 16 14 13 14 13 12 11 10 9 10 8 8 7 7 8 9 8 7 7 8 7 9 7 9 10 10 11 10 8 6 5 5 9 8 6 6 6 6 5 7 8 7 8 8 8 7 8 6 7 9 13
5 7 7 8 7 10 9 9 8 7 8 10 13 20 14 13 11 12 12 14 13 11 14 26 23 18 27 27 28 27 29 28 29 27 26 22 23 22 19 20 20 19 19 17 16 17 14 15 14 13 12 12 11 11 10 8 8 7 7 8 9 8 9 9 8 8 9 8 7 10 10 10 10 10 8 6 5 6 7 7 7 7 6 7 6 6 6 7 7 8 8 7 6 6 6 7 14
6 8 5 5 7 8 8 7 10 7 8 12 14 20 19 15 17 12 13 12 11 12 11 22 26 26 22 26 29 29 29 29 29 30 30 26 27 25 21 20 20 20 19 18 16 16 15 14 15 14 12 13 12 11 9 9 8 9 8 8 9 7 8 9 6 10 9 10 9 7 8 11 10 11 10 5 8 6 7 5 7 9 8 8 7 7 7 6 6 7 8 6 7 7 8 8 15
4 5 7 6 10 7 6 8 8 7 5 5 11 24 21 12 13 16 10 11 7 14 13 12 18 16 24 26 25 27 29 28 28 28 28 28 28 26 22 21 19 18 19 18 16 16 16 14 14 13 11 11 11 11 10 10 8 9 9 8 7 8 8 8 8 9 7 7 10 8 8 8 8 8 9 7 6 6 7 8 9 7 8 8 7 8 4 6 5 4 7 6 4 7 8 9 15
4 5 4 8 8 8 10 7 8 6 10 8 13 25 24 16 13 24 14 9 9 16 17 14 17 16 21 28 22 24 24 22 23 27 30 29 25 27 24 23 20 19 19 19 17 17 17 15 14 12 12 13 13 11 10 9 9 9 7 8 8 9 9 9 8 8 8 7 7 8 8 8 8 6 8 7 6 6 7 7 7 8 10 7 7 7 6 4 7 6 6 5 5 7 8 9 11
3 4 7 9 11 16 6 8 4 9 8 9 17 20 23 16 9 9 11 12 12 12 12 14 13 13 17 24 22 26 18 16 23 25 28 23 20 21 24 22 23 21 17 18 18 18 16 14 14 12 13 12 13 12 10 9 9 9 9 8 8 10 10 9 9 8 9 7 6 7 7 7 6 9 7 7 7 7 6 7 6 7 8 9 7 6 5 4 4 6 6 6 6 7 7 7 11
3 3 4 12 13 11 8 6 5 10 11 13 16 12 16 12 11 10 10 12 13 13 12 15 11 17 19 24 20 27 24 24 24 27 26 25 24 22 24 21 20 20 20 17 17 18 15 12 12 11 13 14 13 10 10 10 9 8 8 8 9 10 10 10 9 8 7 7 7 7 8 7 6 5 9 7 8 8 8 7 8 7 7 7 7 7 7 6 6 4 7 7 6 6 7 9 11
4 4 7 5 9 9 7 6 6 6 9 18 15 13 15 11 10 10 12 12 14 13 13 13 13 14 19 21 25 24 25 19 30 26 29 28 24 24 24 21 19 16 17 17 18 17 14 13 12 11 13 12 12 11 11 10 8 10 9 9 11 12 11 11 8 7 7 7 6 8 7 6 6 5 6 10 9 9 8 7 7 6 6 6 10 8 9 7 6 6 4 6 6 6 7 10 12
5 7 9 8 5 11 13 6 6 8 8 18 17 14 19 13 10 10 13 14 15 15 15 16 17 14 14 21 24 23 24 16 25 26 24 25 22 19 18 18 17 18 18 18 18 16 16 12 11 11 10 12 11 11 10 11 11 9 9 10 10 9 11 11 10 9 9 6 6 8 6 7 7 5 6 9 10 8 8 8 5 6 5 6 9 7 7 8 6 4 5 7 6 4 8 8 10
8 6 6 6 2 10 13 3 5 7 9 11 15 13 10 7 9 11 9 13 18 14 15 17 16 13 15 21 21 16 19 15 14 18 18 17 16 20 20 19 20 20 19 19 19 16 15 13 13 12 12 13 11 10 10 8 9 9 9 10 12 10 11 10 8 8 8 8 8 7 6 6 5 6 5 8 11 8 8 8 6 6 6 7 9 8 7 7 7 5 5 5 6 5 7 9 9
7 5 7 6 5 8 9 11 3 3 8 6 8 11 7 11 11 11 9 6 9 12 9 11 13 13 15 16 15 14 17 17 17 15 17 15 15 13 15 19 19 18 18 18 18 18 17 14 13 13 10 11 11 12 11 10 9 8 8 10 9 10 8 10 10 9 8 8 8 8 6 6 5 5 5 6 9 7 8 8 5 7 8 6 7 7 9 6 6 6 6 5 7 5 8 11 10
5 6 8 12 4 6 10 9 4 5 6 7 7 10 8 8 8 9 9 6 7 8 11 12 12 10 13 13 14 18 15 16 18 16 14 12 14 13 14 15 16 18 17 18 17 15 14 12 12 11 13 15 11 10 9 10 8 7 6 8 8 7 8 9 10 8 8 7 8 6 6 6 6 6 7 6 8 8 8 8 7 5 6 7 7 7 7 6 6 5 5 4 6 5 7 8 10
8 4 7 5 10 9 7 9 7 8 5 12 9 8 9 11 11 10 9 9 8 9 11 11 13 10 11 15 17 17 14 16 16 16 14 13 13 14 13 15 14 15 17 16 15 15 14 13 11 11 11 15 10 9 11 10 9 10 10 7 7 6 8 9 7 10 8 8 7 6 6 6 5 6 6 6 7 6 7 7 7 5 6 7 8 7 5 7 7 5 5 4 4 5 6 6 9
6 4 4 10 8 11 9 7 9 7 8 8 13 14 8 10 11 10 8 10 9 10 9 8 10 9 8 13 14 16 18 16 13 14 14 14 14 13 12 13 15 14 16 18 16 16 16 19 17 15 12 11 13 12 11 12 10 8 5 10 10 8 9 7 10 9 10 9 7 6 6 7 5 5 3 5 5 6 6 5 9 6 5 7 6 5 5 5 4 7 8 4 5 3 7 7 6
5 6 5 12 5 5 9 6 4 4 8 7 11 9 9 9 11 8 6 8 7 11 9 7 10 13 10 11 13 17 16 13 15 15 14 14 14 13 13 13 15 21 19 18 18 17 16 15 17 16 11 11 12 13 12 10 8 11 11 11 8 8 9 11 8 8 10 9 7 6 7 5 5 4 4 4 4 6 4 4 5 7 6 7 7 6 4 5 5 6 7 5 4 5 6 9 8
3 5 6 6 8 7 11 12 8 5 9 8 11 10 9 8 8 6 6 6 6 9 7 8 11 14 11 12 11 18 16 16 14 14 12 13 15 11 12 13 16 17 18 20 18 15 15 15 13 13 12 13 11 11 12 9 7 7 9 10 11 8 4 5 12 11 9 10 8 8 6 6 6 5 3 5 6 4 5 4 4 5 7 7 6 6 5 5 4 6 7 8 3 4 5 7 13
7 4 4 8 7 7 6 12 11 8 7 9 12 12 8 7 9 7 11 6 5 9 5 6 8 12 13 14 13 14 18 18 15 13 13 13 14 12 11 13 13 13 13 13 15 17 15 14 12 13 13 11 11 10 10 7 9 8 9 11 8 7 7 8 6 6 6 6 7 3 5 7 7 6 5 4 3 5 5 5 4 4 5 6 8 6 3 4 4 4 5 5 7 3 4 6 7
6 8 5 6 4 6 7 8 4 3 7 9 13 13 9 7 5 7 7 10 9 8 7 7 7 8 12 12 13 10 13 17 17 13 12 15 18 19 18 15 15 15 13 15 18 18 16 16 15 15 14 13 11 11 10 8 11 10 11 10 8 9 10 10 9 4 6 6 5 4 9 5 6 6 4 5 6 6 5 5 5 4 4 5 7 6 3 5 4 4 6 6 5 7 5 6 6
10 8 11 8 7 8 4 2 5 9 6 5 6 10 9 8 4 6 9 5 10 7 8 7 8 11 12 11 11 13 10 11 16 17 19 19 19 19 20 17 15 13 15 15 17 16 15 16 15 13 11 11 12 10 10 10 12 13 11 11 8 7 7 9 10 13 9 8 12 5 3 5 5 4 4 5 6 6 7 6 5 6 4 3 4 7 6 4 3 4 6 6 7 5 8 5 7
4 10 6 10 9 8 6 5 5 5 7 7 5 9 6 7 8 6 8 5 6 9 8 8 8 9 14 14 14 13 15 16 16 13 13 18 20 20 18 14 14 14 13 14 14 13 14 15 14 14 13 12 11 9 9 10 10 11 13 13 11 12 12 8 5 7 12 9 9 8 9 3 4 7 6 5 6 6 6 7 7 7 6 5 5 7 5 4 5 3 4 5 8 7 5 5 7
7 5 11 11 10 7 4 8 7 6 4 5 8 9 8 8 9 5 8 6 5 9 10 9 9 9 9 13 12 13 16 14 15 14 17 21 21 20 21 16 15 19 15 12 11 13 16 14 13 13 12 12 10 11 10 12 13 11 10 9 9 10 11 11 9 9 6 7 9 9 5 5 5 6 7 6 6 5 6 6 6 6 7 7 5 5 5 5 6 4 4 4 6 6 7 9 10
6 5 10 8 8 7 8 11 7 5 8 8 11 8 10 5 7 6 7 9 8 9 9 9 10 10 10 8 10 13 15 15 18 21 24 23 19 21 22 19 15 15 18 15 12 13 14 14 17 12 13 11 12 11 11 11 12 12 12 11 9 7 8 9 7 5 9 5 8 7 8 8 7 7 7 7 6 8 7 7 7 6 6 6 4 6 5 7 5 5 7 7 7 8 9 10 7
7 12 14 13 10 7 8 9 10 8 9 9 11 10 8 9 8 9 5 5 5 7 10 10 10 12 12 13 12 18 21 20 20 26 26 21 17 18 16 14 17 16 15 14 12 15 16 15 15 13 13 12 11 12 13 11 10 11 11 10 11 8 5 5 5 7 6 6 9 9 9 10 9 8 6 5 6 7 8 6 7 7 6 7 4 6 5 5 6 5 6 8 7 7 7 8 12
10 13 12 8 11 6 7 12 8 9 12 7 8 7 9 8 8 5 8 6 4 10 8 7 7 11 12 18 20 22 26 26 22 21 21 14 11 11 14 17 14 12 10 13 13 15 14 16 14 14 14 12 11 13 12 11 10 11 12 11 11 10 7 8 7 5 5 4 9 8 9 12 9 9 7 6 6 5 5 6 6 6 4 3 3 5 6 7 7 6 6 6 6 7 7 7 6
10 7 7 9 11 8 10 9 9 11 6 6 7 7 6 9 8 7 5 7 7 8 9 9 12 15 16 14 20 24 21 19 18 15 13 14 14 12 15 15 13 13 15 12 11 13 16 16 14 15 11 12 11 11 10 12 12 12 9 11 11 11 11 11 11 11 10 11 10 12 11 8 8 7 7 8 7 6 5 5 6 4 5 5 4 6 5 7 6 6 6 6 7 6 5 6 6
12 11 11 11 7 9 8 13 10 5 6 6 8 7 7 7 5 9 12 10 9 8 11 12 11 16 18 14 16 18 16 14 15 14 14 14 16 17 17 14 15 15 18 16 16 17 16 16 16 17 14 11 11 10 12 13 12 11 11 11 9 10 11 12 11 11 11 12 12 10 10 11 8 8 9 9 9 8 7 6 6 8 7 6 6 6 5 6 7 7 6 6 5 5 7 7 7
8 8 8 7 7 8 4 3 5 5 6 4 6 8 10 7 8 13 14 11 11 8 11 7 11 15 17 14 14 16 14 14 13 13 14 17 20 17 17 14 12 15 16 19 16 14 15 15 15 16 15 10 11 11 12 12 12 12 11 11 11 11 11 11 11 12 12 12 12 12 12 12 12 13 12 12 13 9 8 9 8 9 7 7 7 7 7 7 6 8 7 7 7 7 7 8 8
7 4 9 9 11 8 5 7 6 7 7 8 7 6 9 9 11 13 10 9 9 11 10 9 9 12 12 11 11 11 11 6 10 15 22 23 20 17 18 14 13 18 18 18 16 14 12 13 16 16 12 10 13 13 11 12 12 10 10 11 11 10 11 11 12 13 12 12 11 11 10 9 11 12 13 14 9 8 9 8 8 8 8 8 7 7 7 7 6 5 7 7 5 7 8 8 8
5 7 7 9 9 10 7 8 10 7 9 9 11 8 6 6 6 10 8 9 11 14 14 14 16 19 17 14 12 10 9 9 11 13 12 12 13 13 15 12 12 14 15 15 14 12 13 14 14 14 14 11 12 12 12 13 12 11 9 9 10 10 9 10 10 9 10 11 12 12 12 11 13 12 11 9 9 10 10 10 8 10 8 8 8 8 8 8 8 7 6 5 7 6 7 7 8
7 7 6 11 9 14 11 7 7 8 8 9 7 6 8 10 9 12 11 13 14 15 15 16 17 15 14 15 14 10 10 11 8 8 10 12 14 12 12 12 13 13 13 15 14 13 13 13 10 10 9 10 10 11 14 9 9 9 9 9 8 8 9 10 13 11 11 11 11 12 12 13 12 10 11 10 10 10 10 11 12 11 9 8 7 8 8 8 8 9 9 7 8 7 6 9 7
14 6 9 6 7 11 12 10 8 10 11 10 10 10 11 12 8 10 11 13 13 15 14 15 15 13 13 12 13 11 13 11 9 9 9 10 11 14 13 13 12 13 12 11 11 11 9 9 9 10 9 11 9 11 11 9 8 10 8 9 9 11 11 11 9 10 9 8 9 9 8 8 13 14 13 11 10 11 12 13 12 12 11 8 10 8 8 8 8 8 9 9 8 6 7 6 7
7 8 8 7 6 7 8 13 7 7 9 11 11 11 7 7 10 11 12 12 11 12 10 13 13 12 12 12 13 12 12 13 12 13 14 13 12 10 10 10 9 11 11 8 8 8 9 10 10 12 12 9 10 9 7 10 11 11 10 9 10 10 10 10 7 6 7 8 9 10 11 13 11 11 12 10 10 10 11 11 11 12 11 11 10 10 9 8 8 9 8 9 7 7 7 8 8
4 5 5 3 8 5 9 7 8 12 7 9 6 6 6 8 12 11 10 10 10 12 12 12 12 10 10 10 11 13 11 12 14 11 11 11 8 10 12 12 9 10 10 9 9 9 10 11 10 9 12 11 10 10 10 13 13 13 10 8 9 12 13 11 8 9 8 9 10 9 8 8 13 12 12 13 12 11 12 13 12 13 12 12 11 12 11 10 8 10 10 9 10 8 8 10 11
8 5 4 4 8 5 12 6 4 8 14 7 11 8 7 6 8 10 11 9 9 10 14 11 10 9 10 11 11 11 11 12 12 9 9 9 8 7 9 12 11 9 8 9 10 9 10 10 9 11 13 12 10 9 10 11 10 10 9 11 12 10 11 8 8 10 10 8 6 7 11 12 7 9 10 12 13 13 13 13 13 13 13 13 13 13 12 10 10 11 12 11 10 9 11 12 10
12 13 8 12 12 7 4 3 5 8 14 15 12 12 4 5 7 9 11 12 11 12 12 11 11 12 10 11 10 10 10 10 9 9 9 9 10 9 8 10 8 8 8 9 8 9 8 8 9 8 9 9 8 9 8 8 7 7 7 8 10 8 7 6 8 7 7 6 8 8 8 7 8 12 10 10 13 13 11 12 12 13 13 13 14 14 13 12 14 14 13 12 12 12 12 13 10
Wind_Speed
5 5 4 3 1 1 2 2 3 2 2 6 1 3 4 3 3 2 3 2 3 2 3 4 0 2 3 4 12 8 1 11 6 10 8 1 2 9 11 15 15 14 14 11 10 11 13 17 19 19 19 19 19 18 17 17 18 18 17 17 17 17 17 16 16 15 15 14 14 14 13 13 13 13 14 15 14 13 13 13 13 13 13 13 13 13 14 14 13 12 11 11 11 12 13 13 13
3 4 4 1 1 0 3 2 3 0 2 4 9 2 6 1 1 3 4 6 4 0 1 1 2 2 4 4 4 5 0 2 1 1 1 2 9 7 11 15 15 16 13 11 10 10 10 14 19 19 19 19 19 18 17 18 17 17 18 18 17 17 16 16 16 15 15 14 14 14 14 14 14 14 15 15 14 13 14 13 12 13 13 14 13 12 13 13 12 11 11 11 12 12 13 12 12
2 4 4 3 2 2 1 1 2 2 6 9 6 8 1 4 5 7 10 9 6 1 1 2 0 3 2 3 1 3 6 1 3 2 4 8 11 9 11 13 14 14 14 11 10 10 9 12 20 19 19 19 19 18 18 18 18 18 18 17 17 17 16 16 15 15 15 14 14 14 14 14 14 14 15 15 14 14 13 13 12 13 13 14 12 13 13 12 11 11 11 11 12 13 13 12 12
2 1 0 2 0 3 2 2 2 8 7 9 3 3 3 4 5 8 8 12 1 4 1 2 1 0 2 3 4 4 0 2 0 7 5 7 2 10 11 12 12 11 11 10 9 9 9 15 20 19 19 19 19 19 18 18 18 18 18 17 17 17 16 16 16 15 14 14 14 14 14 14 14 15 15 14 14 13 13 13 12 13 13 12 13 13 12 12 11 11 10 12 13 13 13 13 13
2 3 0 2 4 0 3 3 4 4 11 5 3 2 4 3 7 7 6 5 4 1 2 1 0 1 1 2 2 3 4 4 5 2 5 5 9 10 11 11 11 12 11 11 10 9 10 20 20 18 18 19 19 18 17 18 18 18 18 17 17 16 16 16 15 15 15 15 14 14 14 14 14 15 15 13 14 14 13 12 13 13 12 12 12 12 11 11 10 10 10 11 12 13 13 13 14
1 2 0 1 1 1 3 0 3 7 1 2 1 1 3 1 1 3 10 4 6 1 3 1 1 1 0 1 1 0 2 4 4 4 5 9 12 13 11 10 11 11 11 9 9 8 10 20 19 18 19 19 18 18 18 17 18 17 17 17 17 16 16 16 15 15 15 15 15 15 15 15 15 15 14 13 14 14 13 13 13 13 13 12 12 12 11 11 10 9 10 11 12 13 13 14 14
1 2 2 2 1 1 4 4 5 3 4 3 1 2 3 4 3 4 7 7 3 2 1 1 1 1 1 0 1 2 2 0 4 4 4 13 13 13 11 10 11 12 11 9 8 10 12 19 19 18 18 18 18 19 18 18 17 18 17 18 17 16 16 16 16 15 15 15 15 15 15 15 16 14 13 14 14 14 14 14 13 13 13 12 13 12 12 12 11 10 10 12 13 13 13 14 15
1 1 1 2 1 1 3 2 3 2 3 1 4 5 4 3 3 2 6 1 3 4 6 2 2 2 2 2 1 1 4 4 8 9 13 13 14 13 11 11 13 12 10 9 9 9 14 19 18 18 19 19 19 18 18 18 18 17 18 18 17 16 16 16 16 16 16 16 16 15 15 15 15 14 14 14 14 14 14 14 13 13 13 13 12 12 13 12 10 10 11 12 13 12 13 14 15
2 2 0 3 2 2 1 5 1 1 2 3 4 5 9 5 2 1 5 2 2 3 3 4 1 1 2 0 1 2 2 9 12 12 13 14 15 14 10 12 13 11 10 9 9 8 10 18 18 18 18 18 18 18 19 18 18 17 17 17 16 17 16 16 16 16 16 16 15 15 15 15 14 14 14 14 14 14 14 13 13 13 13 13 12 12 12 12 10 10 11 13 13 13 13 14 15
2 2 1 2 2 6 1 3 1 1 2 3 3 5 6 9 8 3 4 9 3 3 3 1 1 2 0 1 2 3 2 12 14 12 12 13 13 13 14 12 14 14 10 9 9 9 8 16 19 18 18 18 18 17 18 18 17 17 17 17 17 17 16 16 16 16 16 16 15 15 15 14 14 14 14 14 14 13 13 13 13 13 13 12 12 12 12 11 10 10 12 13 14 14 14 14 15
1 3 1 1 0 3 6 3 1 3 3 3 4 5 6 5 8 11 4 4 4 4 6 1 1 3 2 1 1 2 8 13 15 15 14 12 12 13 13 12 12 13 12 10 9 8 9 10 18 19 18 18 18 18 18 17 17 17 17 17 17 16 16 16 16 16 16 16 15 15 15 14 14 13 13 13 13 13 12 12 12 12 12 11 12 12 11 11 11 11 11 13 14 14 14 15 16
1 1 1 2 3 3 1 1 1 3 4 2 2 4 1 3 3 5 10 11 3 3 3 2 2 4 1 2 1 6 8 14 13 12 13 13 12 12 12 11 12 11 13 11 10 8 8 9 9 16 20 18 18 18 17 17 17 17 17 17 17 16 16 15 15 15 15 15 14 14 14 14 13 13 13 13 13 13 12 12 12 12 11 11 12 13 12 12 11 10 11 13 13 14 14 15 16
2 1 4 3 2 2 2 1 2 2 1 3 4 3 4 3 2 4 5 5 5 4 7 8 2 4 2 3 3 7 9 12 12 13 13 12 12 11 11 11 12 12 11 11 10 9 9 8 9 9 13 20 18 18 17 17 17 17 17 16 16 15 15 15 15 14 14 14 14 14 14 14 13 12 13 13 13 12 12 12 12 12 11 11 12 12 12 12 10 10 11 12 13 13 14 15 16
2 4 4 2 0 1 1 1 0 1 2 4 2 4 3 1 3 1 1 5 4 2 3 3 3 4 3 3 6 6 9 13 13 14 12 13 11 11 13 12 12 12 11 10 10 9 9 8 8 9 11 10 10 14 17 18 17 17 16 16 15 15 14 14 14 14 13 14 14 14 14 14 13 12 12 12 12 12 12 12 12 11 11 11 12 13 13 11 10 9 10 11 12 13 14 15 15
0 1 3 1 2 2 1 1 1 1 4 2 2 3 6 3 3 3 3 1 7 3 8 4 2 5 4 9 4 10 11 15 16 14 14 14 14 13 14 12 12 11 10 9 8 9 8 8 8 7 7 7 8 6 6 12 17 16 15 14 15 14 14 13 13 13 13 12 13 13 13 13 12 12 12 12 11 12 12 11 11 11 11 11 13 11 12 10 9 7 8 9 11 12 12 13 14
2 3 2 1 0 1 3 0 0 1 3 1 5 1 2 8 0 2 1 2 5 5 3 3 2 2 2 13 12 14 15 17 15 15 15 17 16 14 14 13 11 11 10 9 9 8 7 8 7 6 6 6 5 5 6 7 13 15 14 14 14 14 13 13 13 12 12 12 12 12 12 10 10 9 12 9 11 11 11 9 10 10 11 11 11 12 10 9 8 6 5 8 9 10 11 12 13
1 3 1 2 2 0 2 0 1 2 4 3 7 3 1 5 1 0 1 3 4 4 3 3 4 2 3 3 5 18 17 16 15 17 17 12 11 13 12 11 11 9 8 9 9 8 8 8 8 6 6 6 5 5 5 5 9 13 11 13 14 14 13 13 12 12 11 10 10 11 9 6 5 5 6 5 9 6 9 10 9 10 10 10 11 12 11 9 9 7 5 7 9 9 9 10 11
1 1 4 0 2 0 3 2 3 1 1 5 5 0 3 8 4 3 4 2 3 3 3 5 3 2 3 1 15 17 18 19 18 18 12 12 13 15 15 13 11 11 11 8 9 8 8 7 8 7 6 6 5 5 4 3 4 6 5 5 5 8 10 11 7 4 5 4 9 7 5 4 5 5 4 6 3 4 6 10 9 9 9 9 11 11 10 9 9 9 7 9 9 9 9 5 5
2 1 1 4 3 3 1 1 3 0 5 5 6 5 2 5 1 2 5 4 3 4 4 3 6 2 7 5 6 14 12 8 15 16 19 16 15 19 14 13 13 11 11 9 9 10 8 7 6 7 6 5 6 5 3 4 5 4 5 5 5 6 6 5 4 4 3 4 5 5 4 4 4 4 4 4 3 6 6 9 9 8 8 8 10 11 10 10 10 10 10 9 9 10 6 4 4
2 2 2 4 5 3 4 3 4 5 2 6 8 3 1 3 0 1 1 7 4 5 4 3 7 4 7 11 9 8 12 12 4 6 8 17 16 16 14 15 12 13 11 10 9 9 8 7 7 6 6 6 6 5 4 5 5 5 5 5 5 5 5 4 4 4 4 4 5 5 5 4 4 3 6 7 6 3 3 7 9 8 7 7 10 7 9 8 11 10 10 9 6 4 5 4 4
1 3 3 4 4 1 3 4 6 6 2 3 3 3 5 2 1 0 0 6 6 4 3 4 7 6 11 10 3 8 13 12 14 11 9 13 14 12 12 11 11 11 10 11 9 9 9 8 7 6 5 5 5 5 5 5 5 5 5 5 5 5 5 5 4 4 4 5 4 5 4 4 4 4 4 4 4 4 4 4 5 4 4 5 7 5 4 4 5 5 5 5 4 4 5 4 4
3 4 4 3 0 2 7 8 7 4 2 3 3 4 4 1 1 3 4 3 8 1 3 4 6 5 3 3 12 9 13 15 15 15 11 13 17 15 13 11 11 10 11 9 8 9 9 8 7 6 5 5 5 5 5 5 5 5 5 5 5 4 5 4 4 4 4 4 4 4 4 5 4 4 4 4 4 3 4 4 4 4 4 4 3 4 4 4 4 4 5 4 3 3 4 4 4
3 2 3 6 4 3 2 3 4 5 2 3 2 3 2 1 2 3 5 7 5 2 3 8 6 3 1 1 7 14 9 9 16 19 17 14 16 15 13 12 13 11 10 9 9 8 8 8 6 6 6 5 4 3 4 5 5 5 5 5 5 5 4 4 4 4 4 4 4 4 5 4 4 4 4 3 4 3 3 3 3 2 4 3 2 4 4 3 4 4 4 3 3 3 3 4 4
2 4 2 6 5 6 4 4 4 3 4 4 3 1 3 2 5 2 3 5 7 7 6 6 5 4 3 2 7 14 22 19 17 19 18 16 17 16 14 13 12 11 10 10 9 9 8 9 7 5 6 5 4 4 5 5 4 5 4 4 5 4 5 4 3 3 3 4 3 4 4 4 4 4 3 4 4 2 2 2 2 3 2 3 2 3 5 4 4 4 3 3 3 2 3 3 3
3 2 3 3 2 3 5 5 6 4 3 5 3 3 6 2 1 1 5 4 4 4 3 3 6 5 3 6 11 10 16 18 16 16 14 12 15 14 12 11 12 11 11 10 9 9 9 8 7 6 5 5 4 5 5 4 4 4 4 5 5 4 5 4 4 3 4 3 3 4 4 4 3 3 3 3 4 4 3 3 2 3 2 2 3 3 4 4 4 4 4 2 2 3 2 3 3
2 4 1 2 2 4 5 4 2 1 4 2 3 9 4 1 4 2 2 3 4 2 2 2 3 2 3 1 10 13 10 18 14 16 16 14 16 16 14 12 12 12 12 11 9 9 8 8 8 7 6 6 5 5 5 5 5 5 4 4 4 4 5 4 4 4 4 4 4 4 4 5 5 5 4 3 4 4 4 4 3 3 3 2 2 2 3 3 3 4 4 3 2 2 3 4 3
1 2 3 3 6 4 1 1 3 1 2 1 2 6 3 2 0 4 1 2 4 3 3 2 5 7 4 3 6 13 16 15 18 14 16 17 16 16 13 13 12 11 12 11 9 9 9 8 7 6 6 4 4 5 5 5 4 5 4 3 3 4 4 5 4 4 5 4 4 4 4 4 5 4 4 3 3 4 4 4 4 3 3 2 2 2 2 3 3 2 4 2 1 1 3 3 4
2 2 3 4 5 4 7 5 6 1 3 3 1 4 2 2 0 3 5 2 2 3 3 4 5 5 2 1 11 8 11 11 13 15 12 11 12 14 15 12 12 12 12 12 9 9 10 8 7 7 6 5 5 5 4 5 5 4 4 4 4 4 5 5 5 5 5 4 3 4 4 4 4 4 4 3 3 4 4 4 4 4 3 2 3 3 2 2 2 3 3 2 2 2 2 3 3
2 2 4 6 6 6 2 3 2 4 3 2 1 3 3 2 2 5 3 1 2 2 3 4 5 5 4 4 11 12 8 7 7 12 17 13 9 11 15 13 14 13 9 11 11 11 11 8 8 7 6 5 6 6 5 4 4 4 4 4 3 4 4 5 5 5 5 3 3 4 4 4 3 5 3 3 4 4 4 5 4 4 4 3 3 3 3 2 2 3 3 2 2 3 3 3 3
1 2 0 6 7 5 4 2 1 2 1 2 1 2 4 4 7 6 4 2 2 4 6 4 2 4 3 3 9 3 9 5 9 15 15 15 15 13 15 13 13 11 10 9 11 11 9 6 6 6 6 7 6 5 4 4 4 4 3 4 3 4 4 5 4 4 4 4 4 4 4 4 4 4 5 3 4 5 4 4 5 5 4 4 4 4 4 3 2 2 4 2 1 3 4 5 5
0 2 2 1 5 4 3 0 2 1 1 4 1 1 4 6 6 4 5 2 3 2 4 4 4 4 2 2 14 3 9 6 17 15 20 17 14 12 12 12 11 10 9 10 11 11 9 7 6 6 6 6 5 5 5 4 3 4 4 4 4 4 4 5 5 4 3 4 4 5 4 4 4 3 2 5 4 5 5 4 3 3 3 4 4 4 4 3 3 3 2 3 0 1 3 5 6
2 2 3 4 1 5 8 4 1 2 1 5 3 1 4 5 6 5 4 2 1 1 3 4 3 4 8 9 15 8 7 7 17 18 14 10 9 10 10 11 11 11 12 11 11 10 9 7 7 6 6 6 5 5 4 4 5 4 4 4 4 3 5 5 5 4 4 3 4 4 3 4 5 4 2 0 6 4 5 4 2 1 2 3 4 4 4 4 3 2 1 3 2 1 3 4 4
4 3 3 2 1 5 7 1 2 1 0 3 2 1 4 3 4 5 6 2 2 2 3 3 5 7 8 10 13 8 8 7 7 11 8 7 9 11 12 13 12 13 12 12 12 10 8 8 7 7 8 8 6 5 4 3 3 4 4 4 5 4 5 5 4 4 4 4 4 4 3 3 3 3 3 0 4 5 5 4 3 3 2 4 4 4 4 4 4 3 1 2 3 3 3 5 5
1 2 0 1 1 4 3 7 2 1 2 2 5 1 3 6 6 4 6 3 2 4 5 7 7 7 9 9 8 5 6 7 8 9 8 7 7 8 9 11 11 12 12 12 12 11 10 8 7 7 7 7 6 6 5 5 4 3 3 4 3 4 3 4 4 4 5 4 3 3 3 4 3 3 2 1 2 3 5 5 3 4 4 4 4 4 4 4 4 4 2 1 3 2 3 5 6
2 3 4 5 2 2 6 3 1 2 2 4 1 3 2 5 3 4 6 4 3 5 7 8 8 6 6 6 5 4 5 7 8 8 9 7 9 8 9 10 10 10 9 12 11 9 8 7 7 7 7 7 6 6 4 4 4 3 3 3 3 3 3 3 3 3 4 5 3 3 3 4 3 3 2 1 3 2 5 5 4 4 4 4 4 4 4 4 4 3 2 1 3 1 3 5 6
1 1 2 2 5 4 3 5 3 2 2 6 3 1 1 4 5 5 5 5 2 5 7 7 6 5 3 5 4 4 4 5 8 9 9 6 5 7 8 7 7 7 8 8 9 9 9 7 6 6 7 7 6 5 5 5 5 5 5 3 3 2 2 3 1 2 3 4 3 3 2 3 3 2 3 2 2 2 2 5 5 4 4 5 5 4 4 4 5 4 2 2 2 3 2 2 5
0 0 0 4 4 7 6 5 4 4 2 3 0 1 3 3 2 4 5 6 3 5 6 5 6 3 2 5 5 5 6 4 5 8 9 8 6 6 6 7 8 8 9 10 10 10 10 10 9 8 7 7 7 6 5 6 5 4 2 3 4 2 3 2 2 1 2 3 2 2 2 3 3 3 2 3 4 2 2 2 5 4 3 4 4 4 3 3 2 3 3 2 2 2 4 4 3
2 1 1 5 2 3 5 4 3 2 1 1 1 2 5 2 4 4 4 5 2 1 2 2 6 4 2 6 7 6 5 5 8 7 8 10 7 7 5 7 10 11 8 10 10 11 10 9 9 8 6 6 7 8 7 5 4 5 5 5 4 4 4 4 3 4 5 3 2 2 2 2 3 2 2 2 2 3 1 1 3 5 4 4 4 3 3 3 3 4 4 3 2 3 4 4 2
0 2 1 2 5 0 6 6 5 1 3 2 3 3 2 3 4 3 3 3 3 5 3 1 5 4 2 5 7 5 6 8 8 7 6 8 9 7 5 5 4 6 9 9 9 10 10 9 8 7 7 7 6 6 7 4 3 3 3 4 5 3 0 0 1 1 2 2 0 0 1 1 3 1 2 3 4 2 2 2 2 3 5 4 4 4 3 3 2 4 5 5 2 2 2 4 7
3 1 0 3 3 3 3 7 7 5 2 1 2 3 3 3 3 3 2 2 2 2 2 1 3 5 5 6 6 7 5 8 8 9 9 8 8 6 5 5 5 6 7 6 7 9 8 8 8 8 8 6 6 6 6 3 5 5 6 6 5 4 3 2 3 3 2 1 1 1 1 0 1 1 2 2 2 3 3 2 1 2 4 4 5 4 2 2 2 2 3 3 4 2 1 2 4
4 5 3 2 2 4 2 3 2 2 4 4 3 4 2 4 1 3 3 6 5 5 1 3 3 4 6 7 4 3 1 6 9 8 8 9 7 6 6 5 6 6 7 8 7 8 7 10 9 10 8 8 7 7 6 5 7 6 6 6 5 5 5 4 3 2 1 0 0 1 4 1 2 2 2 2 2 4 3 3 3 1 2 3 4 4 2 1 2 2 3 4 3 3 3 2 0
3 5 6 4 2 3 2 0 3 1 1 2 1 3 3 4 2 1 2 2 4 2 3 2 4 6 6 5 6 6 4 3 5 8 9 9 7 7 6 7 7 7 8 8 8 8 8 8 8 7 6 6 7 6 6 6 6 7 6 6 4 4 4 4 5 6 4 4 6 2 2 2 3 3 3 3 3 4 5 4 4 4 3 2 3 4 4 2 1 2 3 3 3 2 1 2 2
1 3 0 2 4 4 4 3 1 1 1 3 1 2 1 2 2 3 2 1 3 3 3 4 3 6 7 5 6 7 7 6 7 5 4 8 9 9 9 8 8 8 8 7 5 5 6 7 7 8 7 6 6 6 6 6 6 6 7 7 7 7 7 4 2 2 6 4 2 2 3 1 3 4 4 4 4 3 4 5 5 5 4 3 2 4 3 2 2 1 1 2 2 3 3 2 4
2 3 3 4 4 4 3 3 2 2 1 2 3 2 3 1 3 1 0 1 1 5 4 4 2 2 7 8 7 9 10 8 7 7 7 8 9 10 10 9 9 9 7 6 5 4 5 6 6 7 6 6 5 6 7 6 7 6 5 5 5 6 6 7 5 4 2 2 3 2 2 3 3 4 5 3 3 2 3 4 4 4 5 4 3 3 2 3 3 1 2 2 3 4 4 3 4
2 4 3 3 3 3 2 4 3 1 3 3 6 2 2 0 1 3 1 2 1 0 1 2 3 5 3 4 6 7 7 8 10 10 11 11 9 7 7 7 6 4 5 6 6 5 4 4 4 4 6 1 5 6 6 5 6 7 7 6 5 3 2 1 2 2 4 2 3 2 3 4 4 4 3 2 1 3 2 4 5 4 4 4 2 3 3 4 3 2 2 2 3 3 4 3 2
1 1 3 4 3 2 2 2 3 1 4 3 4 3 1 1 3 4 3 2 2 2 3 1 4 4 4 5 4 4 5 6 6 6 7 7 7 6 5 4 4 3 3 4 4 4 4 4 4 5 7 3 1 3 5 5 6 5 6 5 5 4 3 3 3 4 4 3 4 4 4 4 5 4 3 3 2 2 1 2 4 5 5 5 2 4 4 4 4 4 4 4 4 4 4 5 5
2 1 3 3 3 2 2 2 2 4 5 3 5 4 2 1 1 0 3 2 2 5 3 1 2 3 4 3 4 5 5 5 4 5 5 6 7 6 6 7 5 4 3 3 3 4 5 5 5 7 7 6 4 3 3 6 4 5 6 6 6 6 5 5 5 3 3 2 4 5 5 6 4 5 2 3 3 2 2 1 2 3 2 2 2 3 4 4 4 4 4 3 4 5 4 4 4
1 1 1 2 1 3 1 2 3 4 2 2 3 2 1 2 2 2 1 3 2 3 5 5 3 0 3 4 3 5 6 6 6 7 9 8 8 6 5 5 5 4 4 4 3 3 4 4 5 6 4 4 3 2 2 2 4 5 4 6 7 7 7 6 6 7 6 7 6 6 5 3 4 3 2 4 4 3 2 2 1 2 2 2 3 4 4 4 4 4 4 2 2 3 3 4 3
3 1 5 2 2 2 1 6 2 2 1 3 2 1 2 1 2 4 5 3 3 3 4 5 4 2 2 4 5 5 5 6 7 7 9 7 6 7 7 5 5 7 6 6 4 2 4 5 6 6 4 3 5 1 0 2 3 5 6 6 6 6 7 7 7 7 7 7 6 5 4 6 5 4 5 5 6 6 4 3 4 4 4 4 4 4 4 4 5 5 4 4 3 3 4 4 4
1 1 0 2 2 2 1 0 0 1 1 1 2 1 2 1 1 2 6 5 3 4 4 3 3 1 1 4 5 6 6 5 5 6 7 8 6 5 5 6 6 5 4 5 5 4 4 3 4 4 2 6 7 5 5 6 6 4 5 6 6 6 6 7 7 7 7 7 6 7 7 7 7 7 6 7 7 5 5 6 5 5 5 5 5 5 5 5 4 5 5 5 5 4 4 5 5
2 1 1 1 2 0 1 1 2 1 3 4 4 1 2 3 2 5 5 3 2 2 2 3 3 3 5 6 7 5 4 3 4 6 7 7 5 4 4 4 3 4 5 6 7 5 4 4 3 3 3 4 4 4 5 7 6 6 6 6 6 5 6 6 7 7 7 7 6 6 6 5 6 7 7 7 5 5 6 5 6 5 5 5 5 5 4 4 4 4 5 5 4 4 5 5 4
0 0 1 3 3 3 3 0 2 1 1 3 4 0 2 2 2 3 3 2 2 5 7 7 7 6 6 7 6 4 4 4 3 6 6 6 5 4 5 4 4 4 4 3 5 4 4 4 4 3 2 4 6 5 4 3 3 4 5 6 6 6 4 4 4 4 5 6 6 7 6 6 7 6 6 5 6 6 6 6 5 6 6 5 5 6 5 5 5 5 4 3 5 3 4 5 5
1 0 1 1 1 4 3 1 1 1 1 2 1 2 2 1 1 5 4 5 5 6 8 7 7 7 7 7 7 6 5 5 4 4 4 4 5 5 5 5 4 4 3 2 1 1 3 4 4 4 4 5 7 7 7 5 5 2 3 4 3 3 5 6 7 7 7 6 5 6 6 7 5 5 6 5 5 5 6 6 6 6 6 5 5 5 5 5 5 5 5 5 5 4 4 6 5
3 1 3 1 3 3 2 1 2 3 3 1 2 2 3 3 1 5 7 7 7 7 7 7 5 4 6 5 5 7 7 6 5 4 4 3 5 6 4 4 5 4 3 4 4 4 3 2 4 5 5 6 5 4 5 5 4 5 4 2 4 5 3 5 4 5 4 4 4 4 4 4 7 7 5 4 4 5 5 5 5 6 5 5 6 5 5 5 5 5 6 5 5 4 5 4 4
2 2 3 1 0 2 3 2 2 2 2 2 4 1 1 2 3 4 8 7 6 6 5 5 7 6 6 6 7 7 7 6 5 3 5 2 4 5 4 5 5 4 4 2 4 5 4 2 2 4 7 6 6 5 5 4 3 4 2 3 5 6 6 5 2 3 3 4 5 4 5 5 4 4 4 4 5 6 6 6 5 5 5 5 5 5 5 5 5 5 5 5 4 4 4 5 5
2 3 1 1 2 2 2 1 2 4 0 0 2 2 2 3 4 7 6 6 5 5 5 6 6 6 4 5 6 7 6 5 5 5 4 2 4 2 4 6 6 5 4 2 2 3 4 4 5 5 5 5 5 6 5 5 6 4 2 5 5 6 7 3 1 6 5 5 4 0 4 5 8 6 6 7 7 6 5 5 5 5 5 5 5 5 5 6 5 6 5 5 4 5 5 6 5
1 1 2 1 1 1 3 1 1 1 4 1 2 2 3 2 3 5 6 5 5 4 5 5 4 5 7 7 6 5 6 5 4 5 5 4 4 3 3 4 3 3 2 3 4 4 4 5 5 5 5 3 4 5 5 5 4 5 6 7 7 6 8 5 5 7 5 1 1 3 5 6 4 5 5 5 6 5 4 3 5 5 6 5 5 5 5 5 5 6 5 5 4 4 5 5 4
5 6 2 6 5 1 1 1 2 2 3 2 3 1 1 1 2 3 3 4 5 5 5 5 5 6 6 6 6 6 6 6 6 6 6 5 5 4 4 4 4 4 3 4 4 3 4 3 2 1 1 3 4 3 3 3 3 3 4 5 6 6 4 4 5 3 3 3 4 4 5 4 4 6 4 5 3 3 4 3 6 5 6 6 5 6 5 5 5 6 7 5 5 5 5 5 4
Wind_Direction
324 326 306 307 349 237 73 360 148 285 97 243 311 199 242 220 204 3 242 348 191 252 220 306 2 122 176 201 186 197 200 151 200 148 215 326 146 131 124 128 132 130 132 136 136 139 143 140 139 139 139 137 134 133 133 132 129 127 125 123 122 121 120 119 117 116 113 111 109 108 106 105 101 98 97 96 94 96 96 98 97 101 99 95 86 92 91 88 86 84 84 83 80 77 74 72 71
314 325 317 317 248 28 183 118 94 21 31 311 243 134 220 215 185 237 243 206 206 245 269 169 53 112 36 25 118 107 11 341 166 147 332 127 98 109 130 133 137 134 132 131 131 134 137 139 139 138 141 134 134 134 134 133 131 129 126 125 123 121 120 118 117 114 111 110 109 107 105 103 99 95 94 96 98 97 97 100 103 101 98 93 98 96 91 89 87 85 85 83 80 77 74 72 71
323 354 347 21 11 76 138 43 217 151 178 233 236 198 199 180 183 220 235 232 214 255 320 297 194 49 1 18 260 161 244 16 130 79 74 121 127 140 138 135 132 130 128 128 128 132 132 136 136 137 138 135 135 136 134 135 133 129 127 125 123 121 120 118 116 114 111 110 109 106 104 101 99 95 92 96 97 97 100 103 106 104 98 102 104 98 93 90 88 86 83 81 80 78 75 75 75
20 66 106 64 51 14 88 37 103 154 193 223 297 284 187 197 230 227 242 257 313 323 286 327 312 229 145 214 204 44 286 211 92 138 134 156 106 135 134 130 127 125 119 123 127 128 129 138 137 140 140 135 137 136 136 135 133 130 128 125 124 122 120 118 115 112 111 110 108 105 102 100 97 95 94 93 100 100 98 96 90 88 92 93 92 92 94 91 90 87 82 80 79 77 77 77 77
12 310 195 107 118 291 127 202 163 123 218 153 208 257 204 204 214 243 257 300 308 340 268 222 225 20 199 178 169 154 215 98 139 110 122 101 115 129 131 127 124 122 121 122 124 126 131 137 139 140 136 137 138 136 138 135 133 131 129 126 124 121 120 118 115 113 111 109 106 103 101 99 99 99 98 101 101 100 100 97 96 96 96 96 95 94 94 92 89 87 82 79 80 79 78 77 75
29 35 324 98 209 203 55 174 215 210 161 149 130 258 194 251 237 273 289 340 295 269 213 157 221 217 197 315 267 52 130 158 152 83 138 130 131 130 129 126 123 118 120 121 122 121 136 140 139 137 139 138 137 139 137 136 135 132 129 126 123 122 120 118 115 113 110 108 106 103 98 94 94 93 99 104 99 96 94 94 94 93 93 94 94 95 96 95 92 83 80 80 81 81 79 77 78
325 34 352 35 19 54 198 231 228 226 275 343 199 284 288 307 285 332 309 356 318 322 356 249 91 110 341 8 223 23 2 174 123 134 131 132 128 129 129 125 120 116 119 120 116 123 138 141 137 138 139 139 140 140 138 138 136 132 128 125 125 123 121 119 116 113 110 108 106 104 103 103 102 100 101 99 96 95 92 88 88 87 88 89 92 95 97 93 87 82 79 81 82 81 79 78 78
117 112 281 107 186 70 254 240 262 116 267 328 290 291 289 262 273 323 290 53 293 10 309 352 348 328 250 240 260 43 26 27 95 105 123 130 130 127 125 126 121 119 119 116 118 127 139 139 138 141 141 142 141 141 139 139 136 133 130 128 125 124 122 119 116 112 110 108 107 105 103 102 102 104 100 97 93 92 91 89 86 85 86 89 92 95 92 89 85 80 79 81 84 82 79 78 79
359 88 321 75 209 24 293 236 193 227 278 311 290 278 291 280 247 210 284 234 289 232 319 304 271 334 267 126 74 76 60 110 103 120 127 133 134 130 129 131 125 124 120 117 120 126 137 141 139 140 141 141 142 142 140 139 137 134 130 128 126 124 120 118 115 111 110 110 108 107 106 104 101 98 97 96 93 92 90 89 87 87 90 92 94 92 90 87 84 82 79 84 88 86 83 82 81
43 97 231 155 113 226 313 320 100 275 204 242 271 300 301 308 309 255 258 302 247 273 262 302 127 210 231 112 129 128 157 123 122 124 129 133 132 131 129 131 129 126 120 117 122 129 141 141 139 142 142 142 142 141 140 140 138 134 130 129 126 124 121 117 114 113 113 111 110 108 106 104 102 100 99 97 95 94 92 90 90 90 93 98 96 94 92 91 87 84 85 86 87 88 87 85 83
49 3 161 85 52 233 229 2 33 305 314 300 289 262 250 280 302 303 293 256 299 286 298 7 277 192 150 148 140 67 142 128 131 140 137 132 130 130 127 129 128 126 123 120 126 132 137 139 141 143 144 143 142 142 142 139 136 134 131 128 126 123 120 117 116 115 115 113 111 110 109 105 102 101 99 98 97 96 96 95 94 95 97 98 99 95 99 95 89 87 88 87 90 92 90 88 87
55 125 36 147 208 158 278 139 306 268 288 328 280 276 342 331 326 309 313 316 326 324 287 157 264 144 55 167 173 149 151 134 134 137 133 131 128 126 127 127 121 118 121 124 126 130 135 136 139 145 143 142 141 141 140 138 137 134 131 129 126 123 120 119 118 118 117 115 113 111 109 107 104 102 100 98 98 99 98 97 97 98 102 104 106 108 101 94 89 88 89 91 92 94 94 92 94
121 114 87 86 226 133 223 324 240 263 336 290 259 286 324 314 259 253 275 283 321 347 297 217 171 119 191 181 135 151 156 138 139 138 136 133 131 128 125 121 117 116 118 124 128 129 127 132 133 140 143 142 142 141 142 139 137 135 132 128 125 123 122 121 120 120 119 117 116 114 111 108 107 104 102 101 101 100 101 98 98 100 104 108 102 102 102 94 91 91 91 93 95 97 99 98 99
113 179 119 206 49 166 158 221 241 261 288 245 258 286 313 300 277 327 336 307 301 291 244 250 171 139 158 131 147 181 156 143 140 139 136 132 129 128 124 117 117 118 120 125 128 129 128 131 133 138 140 135 139 142 142 139 138 136 132 129 127 125 124 123 123 122 121 122 121 119 115 112 110 107 104 103 103 104 102 100 99 100 103 105 108 110 99 93 90 90 94 98 101 102 103 104 103
144 168 80 116 344 48 258 140 283 284 264 264 266 325 334 262 291 319 88 8 284 240 296 254 200 144 224 174 207 177 161 151 145 142 138 134 130 129 122 119 120 120 123 122 122 127 131 131 130 132 131 127 132 131 136 140 139 138 134 132 130 128 125 126 124 124 123 123 123 121 120 117 115 113 107 106 106 108 108 105 104 102 103 104 104 104 96 90 85 91 105 107 107 108 107 107 105
162 79 89 91 315 108 275 99 196 111 264 237 264 304 303 282 356 20 186 158 254 288 334 244 309 208 292 193 190 161 153 151 148 142 139 136 133 126 121 122 124 126 128 127 126 125 128 123 125 123 118 119 120 126 136 138 142 140 136 133 130 126 126 127 128 128 127 125 124 122 121 118 115 113 112 108 111 111 112 111 108 105 105 101 94 91 90 84 80 85 118 122 111 108 102 102 104
56 83 39 32 325 152 264 245 80 307 253 268 280 338 328 292 345 243 208 205 252 259 322 243 226 342 267 251 122 142 153 148 144 141 139 131 136 130 128 129 129 133 130 129 130 130 125 120 117 111 112 116 120 119 121 131 145 141 135 132 129 128 130 130 133 132 130 128 123 123 114 98 98 98 107 109 108 113 118 116 111 108 103 98 90 84 79 76 70 73 117 136 117 103 99 93 96
64 88 110 282 209 167 227 214 200 201 236 278 305 101 12 294 341 316 312 218 236 291 251 267 278 273 294 269 146 151 152 152 149 146 133 139 142 136 139 139 137 142 138 136 132 128 124 117 117 116 117 121 119 117 120 137 125 114 115 115 119 127 132 134 126 122 120 121 125 109 104 104 95 109 109 110 111 111 117 121 118 110 103 98 93 88 82 74 72 76 107 129 119 107 77 50 65
131 124 99 225 188 237 188 229 254 204 247 252 279 317 249 254 316 330 356 291 9 322 273 271 270 350 71 103 138 151 144 123 146 146 145 156 146 142 140 141 143 139 139 138 137 129 125 120 121 124 125 124 118 115 118 109 106 105 102 107 111 117 114 111 116 106 101 103 91 99 90 88 102 97 96 117 112 123 126 121 122 113 106 101 100 93 83 71 75 86 91 107 91 70 66 59 58
229 124 244 243 211 236 249 222 248 221 254 288 294 297 174 263 303 332 295 305 312 266 265 267 246 212 149 170 167 131 108 130 136 102 158 143 142 141 140 145 143 140 139 136 131 126 130 134 129 125 131 131 124 126 114 110 107 103 97 95 95 93 99 102 99 107 91 90 94 87 87 84 78 65 127 133 117 80 100 122 125 117 105 103 89 73 74 70 71 75 79 75 68 69 75 69 64
250 87 178 229 216 187 266 218 241 258 217 269 265 284 293 257 251 192 277 330 283 259 236 254 235 212 175 156 188 124 139 134 133 152 161 146 139 135 139 142 139 139 135 135 130 130 138 133 129 128 130 130 130 130 122 119 114 99 97 94 95 101 101 95 99 96 98 99 95 92 92 90 78 64 35 55 58 75 58 59 68 64 67 57 84 81 72 64 64 71 65 62 64 84 82 83 80
133 200 209 203 122 212 252 247 245 231 184 225 273 306 270 303 210 191 179 209 266 232 269 249 260 256 324 191 151 172 157 147 151 147 152 156 148 143 141 140 130 126 133 135 129 134 138 136 134 135 133 134 135 134 132 129 115 115 112 108 98 101 104 101 102 100 102 107 102 101 92 88 78 65 58 72 60 65 63 51 73 92 70 78 81 95 83 78 75 68 80 86 84 87 101 98 97
223 297 236 213 193 184 244 220 234 201 209 199 274 234 315 250 266 224 173 212 246 238 265 286 276 284 355 46 240 150 152 157 163 152 157 170 149 145 142 137 137 138 141 138 128 132 131 132 135 137 139 135 126 120 113 111 117 120 115 115 111 115 109 109 109 109 115 116 110 114 106 96 87 89 89 88 90 56 77 89 92 69 109 110 108 107 92 83 90 88 94 110 109 118 116 112 115
146 236 234 239 203 217 224 229 216 195 183 232 220 336 247 279 316 35 315 281 269 286 290 275 294 292 188 233 214 189 163 166 167 162 161 159 145 145 142 137 137 137 142 137 137 134 139 144 144 142 142 136 130 127 119 120 123 121 130 116 112 136 120 121 136 142 138 129 130 123 110 117 125 118 130 127 147 104 136 112 112 97 80 104 113 108 110 92 92 93 108 108 133 151 166 141 130
173 253 240 285 292 271 329 322 326 342 291 277 294 263 249 168 195 356 280 275 299 308 289 292 293 298 273 207 184 218 161 161 159 157 154 149 133 131 130 130 133 141 149 140 136 132 142 149 147 147 145 134 134 138 126 125 127 123 113 120 139 133 122 143 157 145 141 119 117 131 131 115 107 132 160 171 143 169 177 165 138 138 114 105 108 82 105 111 97 109 104 118 145 157 184 181 154
200 220 131 258 258 259 265 304 355 265 267 256 317 267 292 234 245 218 265 302 288 283 274 326 300 314 68 82 169 163 182 162 155 153 150 145 136 132 134 136 139 150 152 142 136 135 142 151 153 155 150 143 148 131 134 134 141 132 133 133 173 116 133 142 139 139 140 126 125 137 138 140 153 162 171 153 159 186 187 191 169 172 146 131 111 113 104 107 120 106 113 120 165 194 204 206 165
206 243 214 232 261 314 336 177 247 254 238 251 228 304 322 307 184 296 278 359 338 318 328 3 9 348 6 90 120 170 173 166 159 162 148 143 137 135 137 139 147 147 145 145 137 139 150 153 157 155 145 145 147 136 145 149 143 137 139 146 125 129 132 124 122 129 132 131 135 125 127 136 139 144 141 152 133 154 177 179 195 164 170 141 125 120 107 117 115 118 111 140 251 211 208 194 163
258 242 325 297 320 261 237 245 261 133 281 157 141 274 328 269 60 234 291 355 352 329 331 17 13 347 336 232 120 200 191 158 161 146 129 116 134 140 145 150 148 146 151 148 144 144 149 159 157 156 152 150 148 147 150 154 149 146 140 142 141 138 135 124 127 134 130 122 120 122 131 136 140 144 140 144 129 139 156 172 172 171 195 146 133 126 119 124 132 116 114 135 239 53 147 153 146
334 21 319 307 332 336 282 224 224 162 247 131 158 327 18 345 291 275 290 325 358 332 6 18 20 321 348 270 161 172 237 147 143 130 126 126 123 140 147 155 151 148 148 146 144 144 155 160 160 160 152 153 152 159 161 159 143 145 143 156 154 143 132 128 132 134 127 134 142 150 147 150 149 145 161 142 123 108 122 139 147 176 185 172 150 143 133 125 106 112 99 110 101 78 106 130 123
29 33 53 334 351 325 339 320 301 142 250 63 201 0 284 296 285 307 339 348 2 359 17 23 0 304 3 260 96 7 148 171 141 121 120 135 153 164 155 155 149 145 142 144 141 148 157 163 155 151 156 158 162 155 148 155 155 147 140 147 147 143 140 136 140 134 138 165 158 147 142 148 140 145 136 123 109 95 94 122 160 177 186 184 164 153 155 151 180 158 124 105 158 109 150 159 144
99 266 60 55 9 302 306 68 299 280 348 49 54 189 287 289 301 340 338 354 42 345 13 26 350 345 326 306 62 329 106 182 135 134 143 154 163 152 142 140 138 132 135 141 150 150 157 158 149 158 163 158 154 159 161 162 154 150 147 147 155 159 147 143 139 126 143 169 142 133 138 132 123 120 133 131 106 103 96 94 107 183 193 198 175 168 154 152 166 208 135 108 345 81 165 169 164
8 38 318 325 69 277 307 310 172 211 342 29 77 27 258 297 295 356 316 302 66 4 49 38 359 2 2 21 57 332 93 101 135 141 137 136 128 121 126 131 133 136 143 146 145 147 153 156 155 155 154 155 159 168 163 159 167 165 159 152 152 159 148 148 148 143 161 156 122 117 116 119 121 126 119 228 110 103 102 93 96 178 150 150 161 152 150 162 166 150 69 124 126 277 156 172 162
357 70 281 328 342 275 341 295 260 232 126 32 36 215 299 287 310 343 292 298 359 17 41 41 24 20 31 20 49 359 40 68 93 113 106 108 120 128 134 141 149 149 147 147 148 147 148 158 153 151 158 164 163 161 147 156 153 166 164 149 160 158 160 150 139 143 150 121 117 117 114 109 107 120 136 310 118 114 95 80 21 5 79 136 150 157 158 153 150 157 155 119 133 184 192 158 167
328 13 13 234 289 315 300 303 300 38 69 66 21 91 247 277 327 314 297 319 3 19 22 52 28 28 41 40 36 356 9 55 60 86 96 101 100 119 138 144 146 143 146 147 149 151 155 157 156 157 162 163 158 156 162 154 164 166 143 135 151 158 150 131 136 155 127 124 124 141 125 120 123 121 114 96 79 109 109 103 61 32 81 114 127 130 132 126 128 148 194 84 127 113 202 161 172
303 349 4 328 302 243 252 306 285 87 40 84 182 64 351 359 356 340 312 337 0 44 39 63 52 47 75 94 101 50 25 73 80 84 94 101 124 133 140 142 143 142 144 147 149 148 145 148 151 158 160 155 151 148 134 121 107 83 68 89 107 108 95 93 121 133 136 127 161 161 147 130 134 134 128 122 100 75 101 94 72 51 88 105 114 115 123 127 125 103 139 94 72 109 212 183 167
240 210 239 242 304 300 266 249 278 142 48 59 44 104 357 347 358 356 320 327 6 60 47 78 74 52 115 113 105 93 61 77 116 112 110 94 107 126 125 123 121 122 126 135 147 146 142 142 149 155 161 155 139 126 124 121 117 130 127 85 78 80 84 118 89 148 134 156 178 160 155 127 114 112 102 72 64 54 73 107 90 63 100 118 117 115 134 165 164 152 135 147 86 59 32 102 123
82 96 174 258 250 283 280 269 266 72 66 65 329 82 41 345 336 334 319 318 18 46 66 57 91 98 112 119 112 96 91 72 87 103 99 99 84 79 102 116 118 122 137 150 155 156 153 157 156 164 164 150 143 139 141 146 137 123 91 145 144 141 138 122 145 196 195 202 146 151 172 153 117 108 109 101 96 75 28 43 103 66 64 84 94 125 163 185 169 137 139 112 133 113 66 20 22
203 251 301 299 201 282 319 309 345 59 126 238 56 62 40 342 333 316 295 323 318 55 118 128 144 142 78 135 129 130 124 116 103 99 113 114 105 103 117 131 140 139 153 152 162 165 161 158 162 154 148 152 154 156 155 170 165 164 150 166 146 132 139 152 179 225 212 194 137 186 191 128 100 122 121 122 112 120 110 42 91 119 89 72 77 94 112 101 108 129 133 107 29 146 135 135 48
187 212 209 353 301 265 309 312 328 314 85 304 12 50 6 17 345 320 325 301 348 17 20 57 133 143 122 109 134 116 142 125 118 118 115 113 116 144 153 135 126 138 154 161 163 163 159 159 157 151 160 159 157 157 148 171 150 117 120 157 138 118 306 72 103 129 156 136 84 337 346 78 120 140 162 154 135 134 144 114 118 119 112 116 82 47 48 59 82 144 166 156 133 43 116 138 153
181 135 88 233 215 138 285 291 326 344 40 169 49 43 332 347 312 297 297 18 325 72 2 82 165 143 126 99 125 162 142 125 123 122 133 131 144 156 142 133 137 140 161 166 175 170 162 157 158 160 167 166 155 164 162 151 111 91 77 107 86 97 153 107 63 64 84 91 236 359 338 93 111 202 223 207 133 150 151 151 107 69 113 125 127 118 94 82 78 107 145 153 123 134 25 160 155
201 181 180 220 199 227 162 206 230 302 29 88 98 57 11 9 7 5 13 65 360 356 42 83 72 113 130 120 136 118 115 146 136 130 141 148 147 150 150 146 151 159 169 178 179 179 173 166 165 166 166 167 164 165 158 139 112 86 95 82 87 74 54 57 84 59 76 100 302 277 254 181 193 226 221 209 183 169 165 156 137 146 93 109 115 117 129 169 184 202 167 137 165 158 217 268 277
315 212 185 211 198 164 208 231 157 24 356 343 88 63 24 342 15 46 321 97 135 283 55 137 169 133 117 143 159 148 99 132 164 158 162 152 141 139 149 160 165 171 180 185 186 184 170 163 156 155 154 160 164 168 151 145 143 136 125 125 123 97 112 128 166 180 192 191 204 215 256 234 213 234 244 215 204 160 168 170 151 135 120 104 110 115 131 105 94 138 207 164 162 142 165 136 280
30 289 267 178 146 136 140 141 91 36 104 305 31 108 41 322 16 347 342 7 134 157 217 204 180 141 135 180 178 144 139 180 175 142 142 144 150 157 168 172 174 177 189 184 177 180 165 155 151 155 160 163 162 158 153 148 139 148 158 164 163 162 163 230 229 207 182 189 161 204 232 272 226 222 240 225 213 197 159 168 165 162 160 165 136 110 121 159 167 189 132 139 156 143 113 151 216
303 294 44 88 95 108 150 116 119 174 246 294 30 90 127 7 316 321 349 310 147 132 201 221 148 163 160 170 162 161 167 165 149 143 153 166 168 170 174 177 179 184 172 153 156 165 156 148 153 160 159 157 164 157 161 157 152 158 155 159 154 155 173 192 194 182 143 138 160 225 261 266 260 238 240 235 236 208 156 173 174 165 156 187 155 147 161 164 139 64 137 139 134 145 157 177 228
236 304 95 75 110 118 92 88 75 94 95 358 340 50 55 37 281 330 353 119 335 29 216 164 194 194 194 165 175 175 165 158 159 165 166 166 172 175 171 177 183 161 158 157 168 167 144 133 141 127 83 78 173 161 156 156 159 165 164 155 154 160 162 142 138 131 150 151 168 254 240 245 257 259 264 295 282 206 176 163 172 166 158 175 166 149 149 161 160 145 141 164 170 167 182 172 146
273 210 76 83 87 86 120 103 92 41 65 348 338 20 108 309 293 352 336 57 2 312 309 233 183 195 195 191 180 153 137 148 163 160 152 153 164 168 168 153 163 156 124 116 128 118 105 107 122 103 102 131 165 168 155 160 159 153 150 155 159 160 131 90 115 134 152 154 191 219 230 247 246 260 295 309 331 299 216 142 162 186 173 157 159 172 166 161 156 164 189 193 190 190 193 178 197
136 67 57 14 33 34 13 67 110 64 39 315 6 4 100 51 297 316 58 345 292 310 293 238 146 176 205 196 167 156 130 121 123 122 125 140 159 160 153 162 157 120 118 108 101 125 137 131 132 133 158 158 157 149 180 174 154 156 161 159 169 176 163 139 121 117 133 154 201 222 217 223 232 242 309 291 289 267 271 185 161 186 171 165 142 154 195 205 187 182 167 160 179 201 185 191 209
91 29 50 3 338 14 25 337 44 89 320 276 19 325 87 93 301 310 252 262 265 246 271 299 329 228 180 174 155 130 123 124 126 134 146 147 149 148 141 144 142 131 115 125 132 142 148 143 133 142 164 148 131 134 153 230 165 159 154 165 180 187 165 162 164 173 187 191 199 210 221 243 249 258 274 274 274 265 223 200 216 172 160 154 200 198 210 210 180 152 140 151 176 182 159 163 164
49 49 33 67 282 35 296 6 21 42 151 325 328 32 34 58 210 298 319 317 304 274 245 260 261 273 194 160 136 119 117 136 148 152 154 148 145 149 158 151 138 152 162 164 160 142 160 163 159 152 172 127 96 93 28 295 217 167 166 177 189 175 174 172 177 181 189 191 194 204 188 214 230 248 238 233 246 233 216 207 221 195 198 202 200 169 205 198 168 152 149 162 166 176 191 172 178
41 11 92 69 49 31 77 329 177 306 271 282 343 47 105 238 271 318 332 337 306 285 277 271 268 279 118 122 108 120 140 151 145 142 152 163 164 164 147 150 165 143 140 155 164 169 172 160 136 147 114 101 122 169 181 204 232 185 176 185 183 171 178 178 182 187 194 196 188 196 197 201 206 215 223 223 226 213 204 212 206 206 200 195 188 186 177 188 173 162 162 159 184 189 156 173 191
208 153 149 190 141 112 320 120 75 95 236 284 287 48 306 22 288 325 314 303 35 52 28 37 62 92 99 107 107 110 120 117 121 145 160 164 158 152 137 136 125 129 155 171 180 166 156 147 122 131 148 127 131 171 179 214 214 193 192 195 181 178 180 183 193 196 187 189 199 198 213 208 206 221 217 229 218 214 219 213 212 203 198 195 195 194 192 181 181 170 181 192 183 171 168 160 179
344 233 94 61 323 147 87 196 135 198 229 357 358 104 299 303 324 337 13 33 66 45 44 46 46 51 71 80 87 102 102 104 118 131 140 147 142 116 103 112 142 143 157 176 178 143 125 105 103 101 103 113 140 158 177 241 248 235 199 190 193 185 185 188 202 203 203 200 192 195 208 209 219 222 229 227 225 212 219 219 215 219 206 195 194 197 194 186 186 183 202 190 208 181 159 168 178
244 32 3 225 213 100 109 22 36 65 93 46 311 332 318 191 289 31 15 42 41 54 49 50 56 64 74 86 104 118 121 117 111 109 120 108 106 105 118 131 125 122 135 168 99 83 102 122 126 122 135 143 171 185 194 190 187 209 242 238 198 184 183 190 204 204 205 205 199 205 209 220 227 231 234 224 230 221 225 217 217 223 216 212 204 197 193 192 187 195 198 203 225 209 192 204 186
81 73 238 134 103 107 114 159 331 57 82 357 22 14 317 22 7 340 25 40 41 56 51 57 71 65 73 90 103 103 103 107 110 126 107 97 110 111 113 96 101 106 139 153 132 114 115 140 125 131 145 185 194 177 176 185 191 209 210 212 41 14 307 250 233 230 218 201 215 216 217 228 226 226 222 228 218 230 232 233 230 231 224 213 219 217 199 192 190 207 209 210 211 177 212 249 229
156 205 175 84 230 339 348 73 5 33 38 310 312 255 228 19 26 356 30 25 31 57 63 56 68 74 76 83 84 91 99 111 124 100 96 141 102 102 117 114 123 134 150 90 86 92 84 100 128 167 198 184 174 178 184 184 199 214 189 137 153 216 241 249 286 293 200 212 229 227 223 236 280 252 226 222 221 223 218 222 222 241 234 226 218 225 218 207 196 217 216 220 179 169 194 229 235
28 107 55 209 99 149 114 214 150 107 28 355 359 16 334 15 359 347 21 12 38 50 55 61 60 65 79 83 74 64 67 75 80 75 81 72 81 105 120 106 114 135 136 123 99 101 164 188 178 191 184 174 167 168 178 192 202 185 175 167 196 212 231 234 212 248 243 208 207 119 275 257 233 230 219 212 210 211 217 224 222 222 235 236 234 234 217 221 207 219 222 222 188 166 193 231 231
350 65 310 1 28 203 110 33 54 166 155 179 153 29 318 347 350 351 348 360 72 70 76 74 74 69 66 65 66 68 69 62 54 63 75 78 71 66 98 121 120 116 142 132 137 158 164 150 149 160 182 195 199 189 189 206 204 191 182 201 213 208 221 194 196 203 214 298 96 198 239 234 236 231 217 217 214 210 189 213 234 223 226 227 219 234 232 227 217 222 225 230 210 188 214 237 223
166 159 203 171 124 128 91 315 9 54 91 211 98 164 292 314 10 346 2 3 81 85 91 80 75 67 67 66 63 67 74 71 73 71 71 82 90 76 60 64 89 121 125 110 89 100 128 112 125 140 183 177 204 219 214 204 199 155 156 191 207 198 182 174 170 145 129 157 181 194 234 252 230 259 196 216 186 131 176 183 250 219 220 225 228 228 224 222 240 232 224 201 213 209 221 250 245